Overview Statistics Trail Chart Weather Telemetry Raw packets
 

This is the latest recevied weather packets stored in our database for station/object KD2SIG. If no packets are shown the sender has not sent any weather packets the latest 10 day(s).

<< 1 2 3 4 >>
Time Temp. Humidity Pressure Rain* Wind** Luminosity Snow
1788611408 16.67° C 97% 1014.8 hPa 0 mm - 104 W/m² -
1788611101 16.67° C 97% 1014.6 hPa 0 mm - 88 W/m² -
1788610823 16.67° C 97% 1014.5 hPa 0 mm - 92 W/m² -
1788610492 16.11° C 97% 1014.7 hPa 0 mm - 85 W/m² -
1788610191 16.11° C 97% 1014.7 hPa 0 mm - 84 W/m² -
1788609885 16.11° C 97% 1014.4 hPa 0 mm - 78 W/m² -
1788609580 16.11° C 98% 1014.8 hPa 0 mm - 48 W/m² -
1788609280 15.56° C 98% 1014.5 hPa 0 mm - 51 W/m² -
1788608975 15.56° C 97% 1014.4 hPa 0 mm - 35 W/m² -
1788608674 15° C 97% 1014.5 hPa 0 mm - 33 W/m² -
1788608373 15° C 97% 1014.3 hPa 0 mm - 32 W/m² -
1788608069 15° C 97% 1014.3 hPa 0 mm - 28 W/m² -
1788607764 15° C 98% 1014 hPa 0 mm - 27 W/m² -
1788607459 14.44° C 97% 1014 hPa 0 mm - 25 W/m² -
1788607154 14.44° C 97% 1014 hPa 0 mm - 22 W/m² -
1788606854 13.89° C 97% 1013.9 hPa 0 mm - 21 W/m² -
1788606548 13.89° C 97% 1013.9 hPa 0 mm - 18 W/m² -
1788606242 13.89° C 97% 1014 hPa 0 mm - 16 W/m² -
1788605937 13.89° C 97% 1013.7 hPa 0 mm - 13 W/m² -
1788605636 13.89° C 97% 1013.8 hPa 0 mm - 10 W/m² -
1788605331 13.89° C 97% 1013.5 hPa 0 mm - 7 W/m² -
1788605027 13.89° C 97% 1013.6 hPa 0 mm - 6 W/m² -
1788604727 13.89° C 97% 1013.5 hPa 0 mm - 4 W/m² -
1788604423 13.89° C 97% 1013.7 hPa 0 mm - 2 W/m² -
1788604119 14.44° C 97% 1013.6 hPa 0 mm - 0 W/m² -

* Rain latest hour (hover to see other rain measurements)
** Current wind speed in m/s (hover to see current wind gust speed)